sat.trackr.live / text

‹ back to catalog

KUIPER-00388

NORAD 68922 · 2026-098D

PAYLOAD ACTIVE UNKNOWN

§ Identity

Operator
Country
US
Launch date
2026-04-30
Launch site
FRGUI
Launch vehicle
Mass (kg)
RCS (m²)

External: N2YO · Heavens-Above · Gunter

§ Orbital elements

Epoch: 2026-05-24T10:58:05.132640Z

Period
94.10 min
Inclination
51.8718°
Eccentricity
0.0021401
Mean motion
15.30221122 rev/d
Perigee alt
460.5 km
Apogee alt
489.8 km
Semi-major
6,853.3 km
B*
4.7169e-4
RAAN
182.6928°
Arg perigee
61.1560°
Mean anomaly
299.1568°
Rev number
369

§ Raw data

KUIPER-003881 68922U 26098D   26144.45700385  .00013742  00000+0  47169-3 0  99972 68922  51.8718 182.6928 0021401  61.1560 299.1568 15.30221122  3699

JSON: /api/v1/satellites/68922 · /tle

For live sub-satellite position, see the globe view (requires WebGL).

§ Visibility from observer

Set your observer location to see the next 7 days of passes ≥ 10°. The values pass through the URL so the page stays shareable.

No JS? Fill the form by hand. The geolocation button needs JavaScript.